This is the latest recevied weather packets stored in our database for station/object IZ5MJO-13. If no packets are shown the sender has not sent any weather packets the latest 10 day(s).
| Time | Temp. | Humidity | Pressure | Rain* | Wind** | Luminosity | Snow |
|---|---|---|---|---|---|---|---|
| 1777378409 | 27.22° C | 28% | 1004.9 hPa | - | - | - | - |
| 1777377509 | 26.11° C | 33% | 1005.1 hPa | - | - | - | - |
| 1777376608 | 26.11° C | 35% | 1005.1 hPa | - | - | - | - |
| 1777375707 | 24.44° C | 35% | 1005.4 hPa | - | - | - | - |
| 1777374807 | 24.44° C | 37% | 1005.5 hPa | - | - | - | - |
| 1777373907 | 23.33° C | 38% | 1005.6 hPa | - | - | - | - |
| 1777373007 | 22.22° C | 38% | 1005.7 hPa | - | - | - | - |
| 1777372107 | 21.67° C | 38% | 1005.8 hPa | - | - | - | - |
| 1777371207 | 22.22° C | 37% | 1006 hPa | - | - | - | - |
| 1777370306 | 21.67° C | 38% | 1006.2 hPa | - | - | - | - |
| 1777369406 | 20.56° C | 37% | 1006.1 hPa | - | - | - | - |
| 1777368505 | 20° C | 38% | 1006.2 hPa | - | - | - | - |
| 1777367605 | 19.44° C | 40% | 1006.3 hPa | - | - | - | - |
| 1777366705 | 19.44° C | 41% | 1006.4 hPa | - | - | - | - |
| 1777365805 | 18.33° C | 43% | 1006.4 hPa | - | - | - | - |
| 1777364904 | 18.33° C | 46% | 1006.2 hPa | - | - | - | - |
| 1777364009 | 17.78° C | 46% | 1006.1 hPa | - | - | - | - |
| 1777363109 | 16.67° C | 49% | 1006.2 hPa | - | - | - | - |
| 1777362209 | 16.11° C | 52% | 1006.3 hPa | - | - | - | - |
| 1777361308 | 16.11° C | 53% | 1006.3 hPa | - | - | - | - |
| 1777360408 | 15.56° C | 49% | 1006.2 hPa | - | - | - | - |
| 1777359508 | 15.56° C | 50% | 1006.2 hPa | - | - | - | - |
| 1777358608 | 15° C | 57% | 1006.2 hPa | - | - | - | - |
| 1777357708 | 14.44° C | 59% | 1006.1 hPa | - | - | - | - |
| 1777356807 | 14.44° C | 58% | 1006.1 hPa | - | - | - | - |
* Rain since midnight (hover to see other rain measurements)
** Current wind speed in m/s (hover to see current wind gust speed)